TimeHST,TemperatureF,Dew PointF,Humidity,Sea Level PressureIn,VisibilityMPH,Wind Direction,Wind SpeedMPH,Gust SpeedMPH,PrecipitationIn,Events,Conditions,WindDirDegrees,DateUTC
12:11 AM,75.2,68.0,78,30.06,10.0,SE,9.2,-,N/A,,Overcast,130,2013-05-15 10:11:00
12:19 AM,75.2,68.0,78,30.05,10.0,ESE,8.1,-,0.00,Rain,Light Rain,120,2013-05-15 10:19:00
12:53 AM,75.9,66.9,74,30.05,10.0,SE,4.6,-,0.00,,Mostly Cloudy,130,2013-05-15 10:53:00
1:25 AM,75.2,69.8,83,30.04,10.0,ESE,5.8,-,N/A,,Mostly Cloudy,110,2013-05-15 11:25:00
1:53 AM,75.9,69.1,79,30.04,10.0,SE,11.5,-,N/A,,Mostly Cloudy,140,2013-05-15 11:53:00
2:03 AM,75.2,69.8,83,30.03,10.0,South,6.9,-,N/A,,Mostly Cloudy,170,2013-05-15 12:03:00
2:19 AM,75.2,69.8,83,30.03,10.0,East,8.1,-,0.00,Rain,Light Rain,80,2013-05-15 12:19:00
2:53 AM,75.0,69.1,82,30.02,10.0,SE,6.9,-,0.02,Rain,Light Rain,130,2013-05-15 12:53:00
3:53 AM,75.0,69.1,82,30.02,10.0,NE,4.6,-,0.00,,Clear,50,2013-05-15 13:53:00
4:53 AM,73.9,69.1,85,30.02,10.0,ENE,4.6,-,N/A,,Scattered Clouds,70,2013-05-15 14:53:00
5:04 AM,73.4,68.0,83,30.02,10.0,East,3.5,-,N/A,,Mostly Cloudy,90,2013-05-15 15:04:00
5:21 AM,73.4,68.0,83,30.03,10.0,East,3.5,-,N/A,,Mostly Cloudy,80,2013-05-15 15:21:00
5:53 AM,73.0,68.0,84,30.03,10.0,East,4.6,-,N/A,,Partly Cloudy,80,2013-05-15 15:53:00
6:43 AM,75.2,66.2,73,30.05,10.0,East,4.6,-,N/A,,Mostly Cloudy,80,2013-05-15 16:43:00
6:53 AM,75.9,68.0,76,30.06,10.0,ENE,3.5,-,N/A,,Mostly Cloudy,70,2013-05-15 16:53:00
7:53 AM,78.1,70.0,76,30.08,10.0,Calm,Calm,-,N/A,,Partly Cloudy,0,2013-05-15 17:53:00
8:53 AM,79.0,68.0,69,30.09,10.0,WSW,5.8,-,N/A,,Mostly Cloudy,250,2013-05-15 18:53:00
9:53 AM,81.0,69.1,67,30.09,10.0,SW,9.2,-,N/A,,Clear,230,2013-05-15 19:53:00
10:53 AM,81.0,69.1,67,30.08,10.0,WSW,8.1,-,N/A,,Scattered Clouds,240,2013-05-15 20:53:00
11:53 AM,82.9,68.0,60,30.07,10.0,WSW,10.4,-,N/A,,Scattered Clouds,250,2013-05-15 21:53:00
12:53 PM,82.0,66.9,60,30.06,10.0,SW,9.2,-,N/A,,Mostly Cloudy,230,2013-05-15 22:53:00
1:53 PM,82.9,66.9,58,30.05,10.0,WSW,9.2,-,N/A,,Overcast,240,2013-05-15 23:53:00
2:53 PM,84.0,69.1,61,30.04,10.0,WSW,10.4,-,N/A,,Mostly Cloudy,240,2013-05-16 00:53:00
3:53 PM,82.9,68.0,60,30.03,10.0,SSW,10.4,-,N/A,,Scattered Clouds,210,2013-05-16 01:53:00
4:53 PM,82.9,66.9,58,30.03,10.0,SW,10.4,-,N/A,,Partly Cloudy,230,2013-05-16 02:53:00
5:53 PM,82.0,66.9,60,30.04,10.0,SSW,10.4,-,N/A,,Overcast,200,2013-05-16 03:53:00
6:53 PM,81.0,66.9,62,30.06,10.0,SSE,10.4,-,N/A,,Overcast,150,2013-05-16 04:53:00
7:53 PM,79.0,68.0,69,30.08,10.0,SE,6.9,-,0.01,,Overcast,130,2013-05-16 05:53:00
8:53 PM,79.0,66.9,66,30.09,10.0,ENE,4.6,-,N/A,,Overcast,70,2013-05-16 06:53:00
9:53 PM,78.1,66.0,66,30.10,10.0,ESE,4.6,-,N/A,,Clear,110,2013-05-16 07:53:00
10:53 PM,78.1,66.0,66,30.10,10.0,ESE,4.6,-,N/A,,Partly Cloudy,120,2013-05-16 08:53:00
11:53 PM,77.0,66.0,69,30.10,10.0,NNE,4.6,-,N/A,,Overcast,20,2013-05-16 09:53:00